DLH58 EDDL-EDDF

Flight info

Callsign DLH58
Flight time 0h 27m
Altitude 23000
Route COL6T COL T911 ROLIS ROLIS5A
Aircraft B789/H-SDE1E2E3FGHIJ2J3J4J5M1RWXY/LB1D1

Departure

Time 2026-05-07 08:21
Airport Düsseldorf Airport (EDDL)

Arrival

Time 2026-05-07 08:48
Airport Frankfurt Main Airport (EDDF)
Time Latitude Longitude Altitude Speed Heading
2026-05-07 08:05 51.27905 6.76229 135 ft 0 kts 58°
2026-05-07 08:10 51.27901 6.76219 135 ft 4 kts 58°
2026-05-07 08:10 51.27887 6.76183 134 ft 4 kts 58°
2026-05-07 08:10 51.27872 6.76147 134 ft 3 kts 58°
2026-05-07 08:10 51.27859 6.76119 135 ft 4 kts 18°
2026-05-07 08:11 51.27846 6.76124 133 ft 4 kts 289°
2026-05-07 08:11 51.27842 6.76166 135 ft 4 kts 269°
2026-05-07 08:11 51.27842 6.76209 135 ft 4 kts 271°
2026-05-07 08:11 51.27842 6.76230 135 ft 7 kts 269°
2026-05-07 08:13 51.27842 6.76225 135 ft 2 kts 269°
2026-05-07 08:14 51.27841 6.76171 134 ft 7 kts 269°
2026-05-07 08:14 51.27844 6.76097 135 ft 3 kts 291°
2026-05-07 08:14 51.27864 6.76065 135 ft 4 kts 331°
2026-05-07 08:14 51.27896 6.76053 136 ft 6 kts 355°
2026-05-07 08:15 51.27941 6.76051 137 ft 6 kts 359°
2026-05-07 08:15 51.27978 6.76050 138 ft 5 kts 359°
2026-05-07 08:15 51.28027 6.76048 139 ft 10 kts 359°
2026-05-07 08:15 51.28097 6.76034 140 ft 7 kts 356°
2026-05-07 08:16 51.28152 6.76074 139 ft 11 kts 43°
2026-05-07 08:16 51.28209 6.76192 139 ft 14 kts 53°
2026-05-07 08:16 51.28275 6.76328 138 ft 18 kts 52°
2026-05-07 08:16 51.28354 6.76493 138 ft 19 kts 52°
2026-05-07 08:17 51.28436 6.76664 140 ft 19 kts 53°
2026-05-07 08:17 51.28512 6.76822 144 ft 18 kts 52°
2026-05-07 08:17 51.28590 6.76987 146 ft 19 kts 52°
2026-05-07 08:17 51.28669 6.77151 147 ft 19 kts 52°
2026-05-07 08:18 51.28752 6.77323 146 ft 19 kts 53°
2026-05-07 08:18 51.28836 6.77500 144 ft 21 kts 52°
2026-05-07 08:18 51.28920 6.77675 147 ft 19 kts 52°
2026-05-07 08:18 51.29004 6.77841 149 ft 18 kts 53°
2026-05-07 08:19 51.29074 6.77995 151 ft 17 kts 53°
2026-05-07 08:19 51.29149 6.78154 151 ft 17 kts 53°
2026-05-07 08:19 51.29231 6.78199 153 ft 9 kts 347°
2026-05-07 08:19 51.29278 6.78164 154 ft 7 kts 326°
2026-05-07 08:20 51.29321 6.78112 153 ft 7 kts 309°
2026-05-07 08:20 51.29325 6.78086 153 ft 1 kts 262°
2026-05-07 08:20 51.29300 6.78010 154 ft 20 kts 234°
2026-05-07 08:20 51.29089 6.77567 148 ft 83 kts 233°
2026-05-07 08:21 51.28607 6.76558 143 ft 144 kts 232°
2026-05-07 08:21 51.27912 6.75130 481 ft 169 kts 233°
2026-05-07 08:21 51.27230 6.73570 1316 ft 174 kts 239°
2026-05-07 08:21 51.26513 6.71997 2098 ft 179 kts 235°
2026-05-07 08:22 51.25717 6.70332 2591 ft 196 kts 234°
2026-05-07 08:22 51.24894 6.68572 3320 ft 198 kts 236°
2026-05-07 08:22 51.24035 6.66724 3791 ft 218 kts 236°
2026-05-07 08:22 51.23123 6.64803 4668 ft 212 kts 234°
2026-05-07 08:23 51.21950 6.63302 5120 ft 233 kts 198°
2026-05-07 08:23 51.20232 6.63180 5371 ft 264 kts 168°
2026-05-07 08:23 51.18378 6.63887 5901 ft 282 kts 167°
2026-05-07 08:23 51.16419 6.64480 6011 ft 287 kts 166°
2026-05-07 08:24 51.14684 6.65887 6168 ft 281 kts 137°
2026-05-07 08:24 51.13525 6.68300 7154 ft 274 kts 112°
2026-05-07 08:24 51.13144 6.71258 7985 ft 275 kts 87°
2026-05-07 08:24 51.13227 6.74285 8792 ft 280 kts 86°
2026-05-07 08:25 51.13336 6.77329 9674 ft 283 kts 85°
2026-05-07 08:25 51.13466 6.80449 10349 ft 294 kts 85°
2026-05-07 08:25 51.13601 6.83853 10508 ft 321 kts 85°
2026-05-07 08:25 51.13735 6.87566 10591 ft 348 kts 85°
2026-05-07 08:26 51.14023 6.95499 11810 ft 364 kts 85°
2026-05-07 08:26 51.14171 6.99543 12496 ft 369 kts 86°
2026-05-07 08:26 51.14318 7.03650 13156 ft 374 kts 86°
2026-05-07 08:27 51.14462 7.07812 13824 ft 378 kts 87°
2026-05-07 08:27 51.14186 7.11981 14392 ft 382 kts 103°
2026-05-07 08:27 51.13540 7.16120 14969 ft 386 kts 104°
2026-05-07 08:27 51.12873 7.20281 15582 ft 389 kts 104°
2026-05-07 08:28 51.12027 7.24385 16124 ft 393 kts 117°
2026-05-07 08:28 51.10510 7.28005 16668 ft 396 kts 127°
2026-05-07 08:28 51.08777 7.31432 17266 ft 399 kts 130°
2026-05-07 08:28 51.06985 7.34846 17821 ft 402 kts 129°
2026-05-07 08:29 51.05249 7.38348 18317 ft 400 kts 127°
2026-05-07 08:29 51.03534 7.41888 18425 ft 408 kts 127°
2026-05-07 08:29 51.01782 7.45422 18994 ft 408 kts 128°
2026-05-07 08:29 51.00003 7.48954 19452 ft 411 kts 128°
2026-05-07 08:30 50.98219 7.52515 19904 ft 413 kts 128°
2026-05-07 08:30 50.96420 7.56129 20007 ft 420 kts 128°
2026-05-07 08:30 50.94618 7.59739 20006 ft 414 kts 128°
2026-05-07 08:30 50.92851 7.63259 20008 ft 413 kts 128°
2026-05-07 08:31 50.91057 7.66828 19998 ft 413 kts 128°
2026-05-07 08:31 50.89267 7.70391 19991 ft 413 kts 128°
2026-05-07 08:31 50.87457 7.73986 19989 ft 413 kts 128°
2026-05-07 08:31 50.85685 7.77502 19985 ft 413 kts 128°
2026-05-07 08:32 50.83892 7.81058 19977 ft 413 kts 128°
2026-05-07 08:32 50.82098 7.84608 19983 ft 413 kts 128°
2026-05-07 08:32 50.80296 7.88169 19983 ft 413 kts 128°
2026-05-07 08:32 50.78498 7.91717 19979 ft 413 kts 128°
2026-05-07 08:33 50.76703 7.95253 19973 ft 413 kts 128°
2026-05-07 08:33 50.74906 7.98790 19972 ft 413 kts 128°
2026-05-07 08:33 50.73109 8.02321 19972 ft 413 kts 128°
2026-05-07 08:33 50.71307 8.05859 19973 ft 413 kts 128°
2026-05-07 08:34 50.69526 8.09350 19972 ft 413 kts 128°
2026-05-07 08:34 50.67721 8.12882 19973 ft 413 kts 128°
2026-05-07 08:34 50.65920 8.16403 19968 ft 408 kts 128°
2026-05-07 08:34 50.64191 8.19775 19781 ft 381 kts 128°
2026-05-07 08:35 50.62542 8.22989 19049 ft 379 kts 128°
2026-05-07 08:35 50.60898 8.26194 18580 ft 374 kts 128°
2026-05-07 08:35 50.59270 8.29359 17998 ft 371 kts 128°
2026-05-07 08:35 50.57648 8.32510 17400 ft 368 kts 128°
2026-05-07 08:36 50.56042 8.35625 16793 ft 365 kts 128°
2026-05-07 08:36 50.54451 8.38709 16212 ft 362 kts 128°
2026-05-07 08:36 50.53863 8.39848 15991 ft 361 kts 128°
2026-05-07 08:36 50.52283 8.42906 15542 ft 358 kts 129°
2026-05-07 08:37 50.50757 8.45861 14939 ft 358 kts 128°
2026-05-07 08:37 50.49212 8.48854 14473 ft 353 kts 129°
2026-05-07 08:37 50.47667 8.51813 13894 ft 351 kts 129°
2026-05-07 08:37 50.46127 8.54772 13291 ft 349 kts 129°
2026-05-07 08:38 50.44603 8.57709 12687 ft 345 kts 128°
2026-05-07 08:38 50.43094 8.60612 12107 ft 342 kts 128°
2026-05-07 08:38 50.41596 8.63485 11676 ft 335 kts 128°
2026-05-07 08:38 50.40168 8.66220 11672 ft 314 kts 128°
2026-05-07 08:39 50.38821 8.68799 11436 ft 303 kts 128°
2026-05-07 08:39 50.37482 8.71365 10962 ft 302 kts 128°
2026-05-07 08:39 50.36169 8.73875 10537 ft 300 kts 128°
2026-05-07 08:40 50.34902 8.76294 10117 ft 298 kts 128°
2026-05-07 08:40 50.33591 8.78796 9661 ft 295 kts 128°
2026-05-07 08:40 50.32290 8.81275 9169 ft 293 kts 128°
2026-05-07 08:40 50.30813 8.83433 8610 ft 291 kts 146°
2026-05-07 08:41 50.29127 8.85007 7935 ft 283 kts 151°
2026-05-07 08:41 50.27367 8.86435 7296 ft 283 kts 153°
2026-05-07 08:41 50.25614 8.87800 6661 ft 282 kts 153°
2026-05-07 08:41 50.23865 8.89148 6049 ft 280 kts 153°
2026-05-07 08:42 50.22126 8.90480 5414 ft 277 kts 153°
2026-05-07 08:42 50.20407 8.91791 5035 ft 272 kts 153°
2026-05-07 08:42 50.18716 8.93039 4652 ft 265 kts 159°
2026-05-07 08:42 50.16927 8.93189 4215 ft 252 kts 199°
2026-05-07 08:43 50.15932 8.92417 3982 ft 235 kts 218°
2026-05-07 08:43 50.14622 8.90790 4000 ft 230 kts 223°
2026-05-07 08:43 50.13424 8.89174 3988 ft 226 kts 223°
2026-05-07 08:43 50.12245 8.87559 3991 ft 225 kts 223°
2026-05-07 08:44 50.11071 8.85956 3991 ft 225 kts 223°
2026-05-07 08:44 50.10087 8.84124 3851 ft 219 kts 248°
2026-05-07 08:44 50.09563 8.81950 3587 ft 209 kts 251°
2026-05-07 08:44 50.09062 8.79922 3305 ft 192 kts 252°
2026-05-07 08:45 50.08622 8.78080 3044 ft 176 kts 253°
2026-05-07 08:45 50.08215 8.76335 2827 ft 170 kts 253°
2026-05-07 08:45 50.07813 8.74654 2582 ft 158 kts 253°
2026-05-07 08:45 50.07428 8.73048 2383 ft 158 kts 253°
2026-05-07 08:46 50.07176 8.71982 2219 ft 158 kts 253°
2026-05-07 08:46 50.06796 8.70389 2017 ft 157 kts 253°
2026-05-07 08:46 50.06414 8.68779 1834 ft 154 kts 250°
2026-05-07 08:46 50.06054 8.67229 1667 ft 151 kts 253°
2026-05-07 08:47 50.05694 8.65703 1392 ft 150 kts 253°
2026-05-07 08:47 50.05319 8.64157 1203 ft 154 kts 252°
2026-05-07 08:47 50.04954 8.62628 948 ft 152 kts 252°
2026-05-07 08:47 50.04584 8.61088 780 ft 152 kts 252°
2026-05-07 08:48 50.04226 8.59588 558 ft 148 kts 252°
2026-05-07 08:48 50.03870 8.58093 380 ft 138 kts 252°
2026-05-07 08:48 50.03599 8.56954 361 ft 81 kts 250°
2026-05-07 08:48 50.03464 8.56382 365 ft 36 kts 250°
2026-05-07 08:49 50.03429 8.56111 364 ft 23 kts 275°
2026-05-07 08:49 50.03456 8.55910 361 ft 16 kts 279°
2026-05-07 08:49 50.03472 8.55746 364 ft 15 kts 278°
2026-05-07 08:49 50.03487 8.55592 363 ft 14 kts 278°
2026-05-07 08:50 50.03472 8.55387 366 ft 23 kts 249°
2026-05-07 08:50 50.03415 8.55154 365 ft 23 kts 249°
2026-05-07 08:50 50.03368 8.54952 365 ft 19 kts 250°
2026-05-07 08:50 50.03319 8.54745 369 ft 21 kts 250°
2026-05-07 08:51 50.03278 8.54536 368 ft 18 kts 278°
2026-05-07 08:51 50.03323 8.54472 369 ft 7 kts 342°
2026-05-07 08:51 50.03378 8.54444 365 ft 10 kts 341°
2026-05-07 08:51 50.03460 8.54398 364 ft 15 kts 338°
2026-05-07 08:52 50.03557 8.54337 364 ft 14 kts 338°
2026-05-07 08:52 50.03631 8.54313 369 ft 7 kts 24°
2026-05-07 08:52 50.03660 8.54349 367 ft 3 kts 49°
2026-05-07 08:52 50.03673 8.54381 367 ft 5 kts 57°
2026-05-07 08:53 50.03683 8.54422 366 ft 6 kts 71°
2026-05-07 08:53 50.03704 8.54508 364 ft 11 kts 69°
2026-05-07 08:53 50.03735 8.54634 367 ft 14 kts 69°
2026-05-07 08:53 50.03770 8.54788 366 ft 17 kts 71°
2026-05-07 08:54 50.03813 8.54965 367 ft 18 kts 69°
2026-05-07 08:54 50.03857 8.55153 367 ft 17 kts 69°
2026-05-07 08:54 50.03899 8.55323 368 ft 18 kts 69°
2026-05-07 08:54 50.03945 8.55508 365 ft 19 kts 68°
2026-05-07 08:55 50.03994 8.55699 365 ft 19 kts 69°
2026-05-07 08:55 50.04037 8.55899 368 ft 20 kts 70°
2026-05-07 08:55 50.04110 8.55958 368 ft 9 kts 347°
2026-05-07 08:55 50.04170 8.55926 374 ft 10 kts 341°
2026-05-07 08:56 50.04229 8.55939 373 ft 10 kts 22°
2026-05-07 08:56 50.04312 8.55944 373 ft 14 kts 341°
2026-05-07 08:56 50.04407 8.55912 372 ft 14 kts
2026-05-07 08:56 50.04499 8.55948 376 ft 14 kts 17°
2026-05-07 08:57 50.04564 8.56018 372 ft 11 kts 59°
2026-05-07 08:57 50.04594 8.56125 374 ft 11 kts 70°
2026-05-07 08:57 50.04622 8.56243 373 ft 12 kts 70°
2026-05-07 08:57 50.04642 8.56305 371 ft 1 kts 34°
2026-05-07 08:58 50.04647 8.56305 376 ft 1 kts
2026-05-07 08:58 50.04654 8.56305 375 ft 1 kts 355°
2026-05-07 08:58 50.04677 8.56298 372 ft 7 kts 346°
2026-05-07 08:58 50.04727 8.56273 376 ft 1 kts 341°